Regional Weather Roundup
Issued by NWS

Home | Current Version | Previous Version | Text Only | Print | Product List | Glossary On
Versions: 1 2 3 4 5 6 7 8 9 10 11 12 13 14 15 16 17 18 19 20 21 22 23 24 25 26 27 28 29 30 31 32 33 34 35 36 37 38 39 40 41 42 43 44 45 46 47 48 49 50
653
ASUS43 KDTX 262010
RWRMI
MICHIGAN HOURLY REGIONAL WEATHER ROUNDUP
NATIONAL WEATHER SERVICE DETROIT/PONTIAC MI
400 PM EDT FRI AUG 26 2016

NOTE: "FAIR" INDICATES FEW OR NO CLOUDS BELOW 12,000 FEET WITH NO
SIGNIFICANT WEATHER AND/OR OBSTRUCTION TO VISIBILITY.

MIZ047>049-052>055-059>063-066>070-074>076-081>083-262100-
SOUTHEAST LOWER MICHIGAN

CITY           SKY/WX    TMP DP  RH WIND       PRES   REMARKS
ADRIAN         SUNNY     83  62  49 S5        30.13F
ALMA           MOSUNNY   80  63  55 W9        30.13F
ANN ARBOR      SUNNY     84  62  47 W7        30.13F
BAD AXE        SUNNY     78  60  52 W8        30.13S
CARO           SUNNY     79  64  59 SW7       30.12F
DETROIT CITY   SUNNY     85  58  39 W6        30.11F
DETROIT        MOSUNNY   85  61  44 NW6       30.13F
FLINT          SUNNY     83  62  49 W9G22     30.12F
GROSSE ILE     SUNNY     80  66  63 S9        30.11F
HILLSDALE      SUNNY     82  60  46 CALM      30.14F
HOWELL         SUNNY     82  62  51 W8        30.14S

CITY           SKY/WX    TMP DP  RH WIND       PRES   REMARKS
JACKSON        SUNNY     81  61  50 W5        30.14F
LAMBERTVILLE   SUNNY     85  60  43 CALM      30.14F
LANSING        SUNNY     82  59  45 W12       30.13F
LAPEER         FAIR      82  57  42 W7G16     30.12F
MASON          SUNNY     81  62  50 W5        30.14S
MONROE         SUNNY     84  68  58 W7        30.12S
MT. CLEMENS    MOSUNNY   85  61  44 VRB5      30.10F
PONTIAC        MOSUNNY   82  59  45 W13       30.12F
PORT HURON     SUNNY     81  61  50 W5        30.11F
TRI CITIES     SUNNY     79  62  56 SW8       30.12F
MIDLAND        FAIR      80  61  51 SW9       30.11S
TROY           SUNNY     86  55  34 SW3       30.13F
SAGINAW HB     MOSUNNY   81  61  50 SW7       30.11F
$$
MIZ043>046-050>051-056>058-064>065-071>073-077>080-262100-
SOUTHWEST LOWER MICHIGAN

CITY           SKY/WX    TMP DP  RH WIND       PRES   REMARKS
BATTLE CREEK   SUNNY     78  64  61 SW7       30.15F
BENTON HARBOR  SUNNY     78  63  59 NW7       30.14F
BIG RAPIDS     MOSUNNY   77  54  44 W7        30.13F
COLDWATER      SUNNY     83  59  44 CALM      30.14F
FREMONT        FAIR      75  52  44 W8        30.15S
HOLLAND        SUNNY     76  61  59 NW8       30.15F
GRAND RAPIDS   PTSUNNY   80  55  42 SW13      30.14S
IONIA          FAIR      81  58  45 W6        30.12F
KALAMAZOO      SUNNY     82  61  48 VRB3      30.13F
LUDINGTON      MOSUNNY   71  58  63 NW5       30.15S
MARSHALL       SUNNY     81  64  57 S5        30.14F
MOUNT PLEASANT CLOUDY    82  60  48 W8        30.11F
MUSKEGON       PTSUNNY   74  57  55 NW9       30.15F
SOUTH HAVEN    CLOUDY    79  64  60 NW6       30.14F
$$
MIZ016>042-262100-
NORTHERN LOWER MICHIGAN

CITY           SKY/WX    TMP DP  RH WIND       PRES   REMARKS
ALPENA         MOSUNNY   78  52  40 VRB5      30.10F
BEAVER ISLAND  MOSUNNY   73  59  61 W14       30.13S
BELLAIRE       MOSUNNY   75  54  47 NW8       30.13F
CADILLAC       MOSUNNY   75  55  48 W12       30.14S
CHARLEVOIX     MOSUNNY   71  57  60 W14       30.16S
FRANKFORT      MOSUNNY   70  58  65 SW7       30.14F
GAYLORD        PTSUNNY   74  52  46 SW12      30.14S
GRAYLING       CLOUDY    76  57  51 NW10      30.14S
HARBOR SPRINGS MOSUNNY   71  60  67 W7        30.12F
HOUGHTON LAKE  CLOUDY    77  55  46 W9        30.14S
MANISTEE       MOSUNNY   72  57  59 W8        30.14F
OSCODA         CLOUDY    80  61  52 SW12      30.08F
PELLSTON       PTSUNNY   73  57  57 SW9       30.11F
ROGERS CITY    CLOUDY    71  63  75 NE6       30.12S
TRAVERSE CITY  PTSUNNY   76  54  46 W8        30.12F
$$
MIZ007>008-015-262100-
EASTERN UPPER MICHIGAN

CITY           SKY/WX    TMP DP  RH WIND       PRES   REMARKS
KINROSS        CLOUDY    68  59  73 N8        30.11S
MACKINAC ISLAN PTSUNNY   69  60  73 W10G17    30.11S
NEWBERRY       CLOUDY    68  58  69 N6        30.12R
S. S. MARIE    CLOUDY    72  57  59 N12       30.09S
MUNISING         N/A     63  59  87 NE5       30.14R
$$
MIZ004>006-011>014-085-262100-
CENTRAL UPPER MICHIGAN

CITY           SKY/WX    TMP DP  RH WIND       PRES   REMARKS
MANISTIQUE     CLOUDY    69  61  74 S9        30.11F
ESCANABA       CLOUDY    70  59  68 NW6       30.12R
SAWYER-GWINN   CLOUDY    61  57  88 NE3       30.16R
$$
MIZ001>003-009>011-084-262100-
WESTERN UPPER MICHIGAN

CITY           SKY/WX    TMP DP  RH WIND       PRES   REMARKS
IRON MOUNTAIN  CLOUDY    71  51  49 VRB6      30.13S
HOUGHTON       CLOUDY    64  51  62 W10       30.13F
COPPER HARBOR    N/A     63  54  72 N8        30.13S
IRONWOOD       CLOUDY    66  44  45 NW6       30.17S
$$

ABBREVIATIONS USED IN REMARKS
   TC - TEMPERATURE IN CELSIUS
  WCI - WIND CHILL INDEX
   HX - HEAT INDEX
  VSB - VISIBILITY





USA.gov is the U.S. government's official web portal to all federal, state and local government web resources and services.